HB9KNR Weather Reports


Display with metric or nautical units.
time (UTC)temp
F
wind
direction
speed
MPH
gust
MPH
rain 1hr
in
rain 24hr
in
rain mn
in
humidity
%
barometer
mb
20260510153518 68 0.0 0.0 0.00 0.00 0.00 63 1006.8
20260510152517 69 0.0 0.0 0.00 0.00 0.00 61 1006.9
20260510151537 70 0.0 0.0 0.00 0.00 0.00 57 1007.0
20260510150517 70 0.0 0.0 0.00 0.00 0.00 57 1007.0
20260510145517 70 0.0 0.0 0.00 0.00 0.00 55 1006.9
20260510144517 70 0.0 0.0 0.00 0.00 0.00 53 1006.9
20260510143517 70 0.0 0.0 0.00 0.00 0.00 53 1006.9
20260510142517 70 0.0 0.0 0.00 0.00 0.00 51 1006.9
20260510141517 71 0.0 0.0 0.00 0.00 0.00 57 1007.1
20260510140517 70 0.0 0.0 0.00 0.00 0.00 54 1007.0
20260510135517 70 0.0 0.0 0.00 0.00 0.00 51 1007.0
20260510134537 70 0.0 0.0 0.00 0.00 0.00 51 1007.3
20260510133517 70 0.0 0.0 0.00 0.00 0.00 52 1007.3
20260510132523 70 0.0 0.0 0.00 0.00 0.00 46 1007.4
20260510131537 70 0.0 0.0 0.00 0.00 0.00 49 1007.5
20260510130517 70 0.0 0.0 0.00 0.00 0.00 47 1007.6
20260510123539 71 0.0 0.0 0.00 0.00 0.00 52 1007.7
20260510122522 70 0.0 0.0 0.00 0.00 0.00 57 1007.9
20260510121517 69 0.0 0.0 0.00 0.00 0.00 55 1008.0
20260510120517 69 0.0 0.0 0.00 0.00 0.00 55 1008.0
20260510115517 69 0.0 0.0 0.00 0.00 0.00 52 1008.1
20260510114517 69 0.0 0.0 0.00 0.00 0.00 55 1008.2
20260510113517 69 0.0 0.0 0.00 0.00 0.00 53 1008.3
20260510112557 69 0.0 0.0 0.00 0.00 0.00 57 1008.3
20260510111517 68 0.0 0.0 0.00 0.00 0.00 57 1008.5
20260510110517 69 0.0 0.0 0.00 0.00 0.00 55 1008.7
20260510105517 68 0.0 0.0 0.00 0.00 0.00 54 1008.7
20260510104517 69 0.0 0.0 0.00 0.00 0.00 55 1009.0
20260510103517 68 0.0 0.0 0.00 0.00 0.00 57 1008.9
20260510102517 69 0.0 0.0 0.00 0.00 0.00 57 1009.2
20260510101517 68 0.0 0.0 0.00 0.00 0.00 61 1009.3
20260510100517 68 0.0 0.0 0.00 0.00 0.00 60 1009.2
20260510095517 68 0.0 0.0 0.00 0.00 0.00 60 1009.3
20260510094517 67 0.0 0.0 0.00 0.00 0.00 62 1009.4
20260510093517 66 0.0 0.0 0.00 0.00 0.00 62 1009.3
20260510092517 66 0.0 0.0 0.00 0.00 0.00 60 1009.5
20260510091517 66 0.0 0.0 0.00 0.00 0.00 61 1009.6
20260510090517 66 0.0 0.0 0.00 0.00 0.00 64 1009.7
20260510085517 66 0.0 0.0 0.00 0.00 0.00 63 1009.7
20260510084517 65 0.0 0.0 0.00 0.00 0.00 66 1009.8
20260510083517 65 0.0 0.0 0.00 0.00 0.00 65 1009.7
20260510082557 65 0.0 0.0 0.00 0.00 0.00 65 1009.9
20260510081517 64 0.0 0.0 0.00 0.00 0.00 67 1009.8
20260510080537 62 0.0 0.0 0.00 0.00 0.00 66 1010.0
20260510075537 63 0.0 0.0 0.00 0.00 0.00 69 1010.0
20260510074517 63 0.0 0.0 0.00 0.00 0.00 67 1010.2
20260510073517 62 0.0 0.0 0.00 0.00 0.00 69 1010.3
20260510072537 61 0.0 0.0 0.00 0.00 0.00 71 1010.2
20260510071517 60 0.0 0.0 0.00 0.00 0.00 73 1010.2
20260510070517 59 0.0 0.0 0.00 0.00 0.00 74 1010.3
20260510065517 59 0.0 0.0 0.00 0.00 0.00 76 1010.3
20260510064517 58 0.0 0.0 0.00 0.00 0.00 83 1010.5
20260510063517 57 0.0 0.0 0.00 0.00 0.00 86 1010.5
20260510062516 56 0.0 0.0 0.00 0.00 0.00 88 1010.5
20260510061517 55 0.0 0.0 0.00 0.00 0.00 89 1010.5
20260510060517 54 0.0 0.0 0.00 0.00 0.00 90 1010.5
20260510055517 53 0.0 0.0 0.00 0.00 0.00 90 1010.4
20260510054517 52 0.0 0.0 0.00 0.00 0.00 90 1010.4
20260510053517 51 0.0 0.0 0.00 0.00 0.00 90 1010.4
20260510052517 51 0.0 0.0 0.00 0.00 0.00 89 1010.5
20260510051517 50 0.0 0.0 0.00 0.00 0.00 89 1010.5
20260510050516 50 0.0 0.0 0.00 0.00 0.00 88 1010.4
20260510045537 49 0.0 0.0 0.00 0.00 0.00 87 1010.4
20260510044516 49 0.0 0.0 0.00 0.00 0.00 87 1010.6
20260510043517 49 0.0 0.0 0.00 0.00 0.00 87 1010.6
20260510042517 49 0.0 0.0 0.00 0.00 0.00 86 1010.7
20260510041517 49 0.0 0.0 0.00 0.00 0.00 86 1010.7
20260510040517 49 0.0 0.0 0.00 0.00 0.00 86 1010.8
20260510035516 49 0.0 0.0 0.00 0.00 0.00 86 1010.9
20260510034516 50 0.0 0.0 0.00 0.00 0.00 86 1010.9
20260510033516 50 0.0 0.0 0.00 0.00 0.00 85 1011.0
20260510032537 50 0.0 0.0 0.00 0.00 0.00 85 1011.1
20260510031517 50 0.0 0.0 0.00 0.00 0.00 85 1011.3
20260510030517 50 0.0 0.0 0.00 0.00 0.00 84 1011.3
20260510025517 50 0.0 0.0 0.00 0.00 0.00 84 1011.4
20260510024556 50 0.0 0.0 0.00 0.00 0.00 84 1011.3
20260510023516 50 0.0 0.0 0.00 0.00 0.00 84 1011.3
20260510022516 51 0.0 0.0 0.00 0.00 0.00 83 1011.3
20260510021516 51 0.0 0.0 0.00 0.00 0.00 83 1011.3
20260510020517 51 0.0 0.0 0.00 0.00 0.00 82 1011.4
20260510015516 51 0.0 0.0 0.00 0.00 0.00 82 1011.4
20260510014516 51 0.0 0.0 0.00 0.00 0.00 82 1011.5
20260510013536 52 0.0 0.0 0.00 0.00 0.00 82 1011.5
20260510012516 52 0.0 0.0 0.00 0.00 0.00 81 1011.5
20260510011517 52 0.0 0.0 0.00 0.00 0.00 81 1011.5
20260510010517 52 0.0 0.0 0.00 0.00 0.00 81 1011.6
20260510005517 52 0.0 0.0 0.00 0.00 0.00 80 1011.6
20260510004516 53 0.0 0.0 0.00 0.00 0.00 80 1011.6
20260510003516 53 0.0 0.0 0.00 0.00 0.00 80 1011.4
20260510002516 53 0.0 0.0 0.00 0.00 0.00 80 1011.5
20260510001516 53 0.0 0.0 0.00 0.00 0.00 79 1011.5
20260510000517 54 0.0 0.0 0.00 0.00 0.00 79 1011.4
20260509235516 54 0.0 0.0 0.00 0.00 0.00 78 1011.6
20260509234516 54 0.0 0.0 0.00 0.01 0.00 77 1011.7
20260509233517 54 0.0 0.0 0.00 0.01 0.00 76 1011.8
20260509232516 54 0.0 0.0 0.00 0.01 0.00 75 1011.9
20260509231516 55 0.0 0.0 0.00 0.01 0.00 75 1011.9
20260509230516 55 0.0 0.0 0.00 0.01 0.00 74 1011.9
20260509225636 55 0.0 0.0 0.00 0.01 0.00 74 1012.0
20260509224516 55 0.0 0.0 0.00 0.01 0.00 74 1012.1
20260509223516 56 0.0 0.0 0.00 0.01 0.00 73 1012.2
20260509222536 56 0.0 0.0 0.00 0.01 0.00 73 1012.4
20260509221516 56 0.0 0.0 0.00 0.01 0.00 73 1012.3
20260509220536 56 0.0 0.0 0.00 0.01 0.00 72 1012.2
20260509215537 56 0.0 0.0 0.00 0.01 0.01 72 1012.1
20260509214517 57 0.0 0.0 0.00 0.01 0.01 71 1012.2
20260509213517 57 0.0 0.0 0.00 0.01 0.01 70 1012.2
20260509212517 57 0.0 0.0 0.00 0.01 0.01 70 1012.2
20260509211517 57 0.0 0.0 0.00 0.01 0.01 69 1012.1
20260509210517 58 0.0 0.0 0.00 0.01 0.01 69 1012.2
20260509205517 58 0.0 1.0 0.00 0.01 0.01 68 1012.1
20260509204517 58 0.0 1.0 0.00 0.01 0.01 68 1012.2
20260509203517 59 0.0 1.0 0.00 0.01 0.01 67 1012.2
20260509202517 59 0.0 0.0 0.00 0.01 0.01 67 1012.3
20260509201517 59 0.0 1.0 0.00 0.01 0.01 66 1012.2
20260509200517 60 0.0 1.0 0.00 0.01 0.01 66 1012.3
20260509195517 60 0.0 1.0 0.00 0.01 0.01 66 1012.3
20260509194537 61 0.0 1.0 0.00 0.01 0.01 64 1012.3
20260509193517 61 0.0 0.0 0.00 0.01 0.01 62 1012.1
20260509192517 62 0.0 1.0 0.00 0.01 0.01 60 1012.1
20260509191517 63 0.0 1.0 0.00 0.01 0.01 59 1012.0
20260509190517 64 0.0 0.0 0.00 0.01 0.01 57 1012.1
20260509185537 65 0.0 1.0 0.00 0.01 0.01 56 1012.2
20260509184517 66 0.0 1.0 0.00 0.01 0.01 55 1012.1
20260509183517 67 0.0 0.0 0.00 0.01 0.01 54 1012.2
20260509182537 68 0.0 0.0 0.00 0.01 0.01 53 1012.2
20260509181517 69 0.0 0.0 0.00 0.01 0.01 51 1012.1
20260509180517 69 0.0 0.0 0.00 0.01 0.01 50 1011.9
20260509175517 70 0.0 0.0 0.00 0.01 0.01 49 1012.0
20260509174516 70 0.0 0.0 0.00 0.01 0.01 45 1012.1
20260509173517 71 0.0 0.0 0.00 0.01 0.01 43 1012.1
20260509172517 71 0.0 0.0 0.00 0.01 0.01 41 1012.2
20260509171537 72 0.0 0.0 0.00 0.01 0.01 39 1012.3
20260509170537 72 0.0 0.0 0.00 0.01 0.01 39 1012.3
20260509165517 72 0.0 0.0 0.00 0.01 0.01 38 1012.3
20260509164537 72 0.0 0.0 0.00 0.01 0.01 38 1012.4
20260509163517 72 0.0 1.0 0.00 0.01 0.01 38 1012.5
20260509162516 72 0.0 1.0 0.00 0.01 0.01 38 1012.5
20260509161516 73 0.0 0.0 0.00 0.01 0.01 37 1012.7
20260509160517 73 0.0 1.0 0.00 0.01 0.01 35 1012.5
20260509155516 73 0.0 2.0 0.00 0.01 0.01 35 1012.6
20260509154516 73 0.0 3.0 0.00 0.01 0.01 37 1012.9